Regional Weather Roundup
Issued by NWS Albany, NY

Home | Current Version | Previous Version | Text Only | Print | Product List | Glossary On
Versions: 1 2 3 4 5 6 7 8 9 10 11 12 13 14 15 16 17 18 19 20 21 22 23 24 25 26 27 28
000
ASUS41 KALY 172010
RWRALY

NEW YORK STATE HOURLY WEATHER ROUNDUP
NATIONAL WEATHER SERVICE ALBANY NY
300 PM EST FRI NOV 17 2017

NOTE: "FAIR" INDICATES FEW OR NO CLOUDS BELOW 12,000 FEET WITH NO
SIGNIFICANT WEATHER AND/OR NO OBSTRUCTIONS TO VISIBILITY.

NYZ032-033-038>043-046>054-057>066-NYZ062>081-082-084-172100-
EAST


CITY           SKY/WX    TMP DP  RH WIND       PRES   REMARKS
ALBANY         MOSUNNY   39  19  44 NW16G22   30.08R WCI  30
GLENS FALLS    SUNNY     39  14  36 N14       30.03R WCI  31
POUGHKEEPSIE   SUNNY     47  17  30 NW12      30.03R
NEWBURGH       SUNNY     45  19  36 W21       30.06R
MONTGOMERY     SUNNY     45  16  31 NW9G20    30.05R
WHITE PLAINS   SUNNY     45  20  36 W17G26    30.03R
ISLIP          MOSUNNY   48  23  37 NW13G24   30.01R
NEW YORK CITY  MOSUNNY   48  21  34 W21G28    30.05S
CENTRAL PARK   SUNNY     47  17  30 VRB6      30.09R
$$

NYZ005>009-017-018-044>046-055-056-172100-
CENTRAL


CITY           SKY/WX    TMP DP  RH WIND       PRES   REMARKS
FULTON         SUNNY     35  22  58 W12       30.17S WCI  27
SYRACUSE       MOSUNNY   36  20  52 NW12      30.17R WCI  28
ROME           SUNNY     34  20  56 W17       30.16R WCI  23
ELMIRA         MOSUNNY   39  21  48 W6        30.14F WCI  35
BINGHAMTON     SUNNY     34  16  47 NW10      30.10R WCI  26
MONTICELLO     SUNNY     38  16  40 W12G17    30.07R WCI  30
$$

NYZ026>034-041>043-087-172100-
NORTH


CITY           SKY/WX    TMP DP  RH WIND       PRES   REMARKS
WATERTOWN      SUNNY     33  18  53 W7        30.16F WCI  27
FORT DRUM      NOT AVBL
OGDENSBURG     FAIR      35  14  42 W12       30.14F WCI  26
MASSENA        SUNNY     31  16  54 W14       30.14S WCI  21
SARANAC LAKE   SUNNY     26  17  68 VRB7      30.02R WCI  18
PLATTSBURGH    SUNNY     33  14  45 NW6       30.06R WCI  28
$$

NYZ001>004-010>016-019>021-085-172100-
WEST


CITY           SKY/WX    TMP DP  RH WIND       PRES   REMARKS
NIAGARA FALLS  SUNNY     37  24  59 SW6       30.16F WCI  32
BUFFALO        MOSUNNY   35  26  69 W3        30.15F
DUNKIRK        MOSUNNY   40  29  64 N5        30.15F
JAMESTOWN      CLOUDY    36  26  67 SW6       30.11F WCI  31
WELLSVILLE     CLOUDY    37  22  54 W6        30.11F WCI  32
ROCHESTER      MOSUNNY   37  23  56 W9        30.17F WCI  30
PENN YAN       SUNNY     39  18  42 W6        30.14F WCI  35
$$

             KEY
       WCI = WIND CHILL INDEX
       VSB = VISIBILITY
       HX  = HEAT INDEX
$$




USA.gov is the U.S. government's official web portal to all federal, state and local government web resources and services.